Location: Milton
(43.5183°N, 79.8775°W)
Time: 09:11:15
(UTC+00:00)

UNISAT 6 - Pass Details

Date: 28 March 2023
Orbit: 599 x 680 km, 97.7° (Epoch: 02 June)

Event Time Altitude Azimuth Distance (km) Brightness Sun altitude
Rises 10:06:07 0° 167° (SSE) 2,884 ? -12.0°
Reaches altitude 10° 10:08:16 10° 168° (SSE) 1,995 ? -11.6°
Maximum altitude 10:12:37 85° 257° (WSW) 646 ? -10.9°
Drops below altitude 10° 10:17:07 10° 346° (NNW) 2,062 ? -10.1°
Sets 10:19:23 0° 347° (NNW) 2,991 ? -9.7°
